Volver al catálogo

STARLINK-34589

ActivoComunicacionesVLEO
NORAD 64747·PAYLOAD·🇺🇸 United States

Lanzado Jul 2, 2025 desde Cape Canaveral Space Force Station

Loading…

Próximos Pases (próximas 24 horas)

TLE

ActualizadoSource: CelesTrak SupGP

Época: Sep 14, 2026, 22:53 UTC

1 64747C 25144Z   26257.95395833 -.00008392  00000+0 -24808-3 0  2576
2 64747  53.1599   7.2863 0001245  85.4961 302.4094 15.34378608    11

Sigue STARLINK-34589 en tiempo real con AllMySat

Download on the App Store